FW7875 Weather Reports


time (UTC)temp
C
wind
direction
speed
KPH
gust
KPH
rain 1hr
cm
rain 24hr
cm
rain mn
cm
humidity
%
barometer
mb
20260508115512 4 101 11.3 14.5 0.00 0.00 0.00 64 1018.1
20260508115012 4 107 11.3 14.5 0.00 0.00 0.00 63 1018.1
20260508114533 3 98 8.0 11.3 0.00 0.00 0.00 65 1018.1
20260508114013 4 101 8.0 12.9 0.00 0.00 0.00 64 1018.2
20260508113515 3 90 8.0 12.9 0.00 0.00 0.00 65 1018.1
20260508113034 4 87 9.7 16.1 0.00 0.00 0.00 64 1018.1
20260508112516 4 95 11.3 16.1 0.00 0.00 0.00 64 1018.1
20260508112011 4 96 11.3 14.5 0.00 0.00 0.00 65 1018.1
20260508111533 4 89 9.7 14.5 0.00 0.00 0.00 64 1018.0
20260508111014 4 97 9.7 14.5 0.00 0.00 0.00 65 1018.1
20260508110514 3 77 9.7 12.9 0.00 0.00 0.00 66 1018.0
20260508110045 3 95 8.0 12.9 0.00 0.00 0.00 66 1018.1
20260508105513 3 105 8.0 11.3 0.00 0.00 0.00 66 1018.1
20260508105017 3 106 8.0 12.9 0.00 0.00 0.00 66 1018.0
20260508104531 3 94 9.7 14.5 0.00 0.00 0.00 66 1018.0
20260508104014 3 103 9.7 16.1 0.00 0.00 0.00 66 1017.9
20260508103512 3 92 11.3 16.1 0.00 0.00 0.00 66 1018.0
20260508103030 3 96 12.9 16.1 0.00 0.00 0.00 67 1017.9
20260508102513 3 102 11.3 16.1 0.00 0.00 0.00 67 1017.9
20260508102014 3 105 9.7 14.5 0.00 0.00 0.00 68 1018.0
20260508101530 3 107 9.7 14.5 0.00 0.00 0.00 68 1017.9
20260508101012 3 111 9.7 12.9 0.00 0.00 0.00 68 1018.1
20260508100511 3 120 8.0 16.1 0.00 0.00 0.00 68 1018.0
20260508100032 3 110 11.3 16.1 0.00 0.00 0.00 69 1018.2
20260508095515 3 101 8.0 12.9 0.00 0.00 0.00 69 1018.0
20260508095015 3 109 8.0 12.9 0.00 0.00 0.00 68 1018.0
20260508094534 3 103 9.7 12.9 0.00 0.00 0.00 69 1018.0
20260508094014 3 115 8.0 12.9 0.00 0.00 0.00 67 1018.0
20260508093512 3 105 9.7 12.9 0.00 0.00 0.00 67 1018.0
20260508093036 3 127 9.7 12.9 0.00 0.00 0.00 66 1018.1
20260508092514 3 103 8.0 11.3 0.00 0.00 0.00 67 1018.1
20260508092011 3 110 6.4 11.3 0.00 0.00 0.00 67 1018.0
20260508091531 3 100 8.0 11.3 0.00 0.00 0.00 68 1018.2
20260508091012 3 115 8.0 12.9 0.00 0.00 0.00 67 1018.2
20260508090514 3 116 6.4 12.9 0.00 0.00 0.00 66 1018.2
20260508090031 4 101 8.0 12.9 0.00 0.00 0.00 65 1018.2
20260508085511 5 114 8.0 12.9 0.00 0.00 0.00 62 1018.2
20260508085014 4 98 8.0 12.9 0.00 0.00 0.00 63 1018.2
20260508084530 4 96 8.0 11.3 0.00 0.00 0.00 63 1018.4
20260508084011 4 90 8.0 11.3 0.00 0.00 0.00 63 1018.3
20260508083512 4 107 6.4 9.7 0.00 0.00 0.00 63 1018.4
20260508083038 5 91 8.0 9.7 0.00 0.00 0.00 62 1018.4
20260508082519 5 86 6.4 9.7 0.00 0.00 0.00 62 1018.5
20260508082012 4 94 6.4 12.9 0.00 0.00 0.00 63 1018.5
20260508081534 5 112 8.0 12.9 0.00 0.00 0.00 61 1018.5
20260508081013 5 104 8.0 12.9 0.00 0.00 0.00 61 1018.5
20260508080517 5 113 6.4 11.3 0.00 0.00 0.00 60 1018.6
20260508080032 5 120 6.4 11.3 0.00 0.00 0.00 60 1018.6
20260508075517 6 121 6.4 14.5 0.00 0.00 0.00 57 1018.5
20260508075017 6 89 8.0 14.5 0.00 0.00 0.00 56 1018.6
20260508074540 6 104 8.0 12.9 0.00 0.00 0.00 55 1018.6
20260508074013 6 95 6.4 14.5 0.00 0.00 0.00 55 1018.5
20260508073515 7 89 9.7 14.5 0.00 0.00 0.00 54 1018.7
20260508073033 6 96 9.7 12.9 0.00 0.00 0.00 55 1018.6
20260508072512 6 84 8.0 14.5 0.00 0.00 0.00 55 1018.6
20260508072017 7 94 8.0 14.5 0.00 0.00 0.00 54 1018.7
20260508071540 7 94 11.3 14.5 0.00 0.00 0.00 54 1018.7
20260508071012 7 92 9.7 14.5 0.00 0.00 0.00 54 1018.6
20260508070515 7 96 8.0 12.9 0.00 0.00 0.00 54 1018.6
20260508070031 7 115 9.7 16.1 0.00 0.00 0.00 53 1018.8
20260508065516 7 113 11.3 16.1 0.00 0.00 0.00 52 1018.6
20260508065011 7 96 11.3 14.5 0.00 0.00 0.00 53 1018.5
20260508064532 7 110 8.0 12.9 0.00 0.00 0.00 54 1018.6
20260508064011 7 102 8.0 12.9 0.00 0.00 0.00 54 1018.5
20260508063513 7 92 8.0 14.5 0.00 0.00 0.00 54 1018.6
20260508063032 7 97 9.7 14.5 0.00 0.00 0.00 54 1018.5
20260508062511 7 105 9.7 12.9 0.00 0.00 0.00 53 1018.5
20260508062017 7 120 8.0 12.9 0.00 0.00 0.00 53 1018.5
20260508061537 7 105 9.7 14.5 0.00 0.00 0.00 52 1018.4
20260508061015 7 103 9.7 16.1 0.00 0.00 0.00 53 1018.4
20260508060514 7 114 11.3 16.1 0.00 0.00 0.00 53 1018.5
20260508060044 7 96 9.7 16.1 0.00 0.00 0.00 54 1018.4
20260508055512 7 93 11.3 16.1 0.00 0.00 0.00 54 1018.4
20260508055014 7 90 11.3 14.5 0.00 0.00 0.00 56 1018.4
20260508054531 7 97 9.7 14.5 0.00 0.00 0.00 57 1018.5
20260508054013 6 90 8.0 14.5 0.00 0.00 0.00 58 1018.5
20260508053512 6 101 9.7 14.5 0.00 0.00 0.00 58 1018.6
20260508053057 6 101 9.7 12.9 0.00 0.00 0.00 59 1018.6
20260508052514 6 98 9.7 12.9 0.00 0.00 0.00 59 1018.5
20260508052016 6 108 9.7 11.3 0.00 0.00 0.00 58 1018.5
20260508051532 6 89 8.0 11.3 0.00 0.00 0.00 57 1018.6
20260508051014 6 119 8.0 11.3 0.00 0.00 0.00 57 1018.6
20260508050515 6 105 6.4 11.3 0.00 0.00 0.00 57 1018.6
20260508050033 6 94 6.4 11.3 0.00 0.00 0.00 58 1018.6
20260508045516 6 94 8.0 9.7 0.00 0.00 0.00 58 1018.6
20260508045012 6 91 4.8 9.7 0.00 0.00 0.00 56 1018.6
20260508044532 6 89 6.4 9.7 0.00 0.00 0.00 56 1018.6
20260508044012 6 92 4.8 6.4 0.00 0.00 0.00 56 1018.6
20260508043512 6 88 4.8 6.4 0.00 0.00 0.00 57 1018.5
20260508043032 6 76 3.2 6.4 0.00 0.00 0.00 56 1018.6
20260508042513 6 78 4.8 6.4 0.00 0.00 0.00 57 1018.5
20260508042012 7 101 4.8 9.7 0.00 0.00 0.00 56 1018.6
20260508041553 7 103 4.8 9.7 0.00 0.00 0.00 54 1018.6
20260508041012 7 97 6.4 9.7 0.00 0.00 0.00 52 1018.7
20260508040514 7 97 6.4 9.7 0.00 0.00 0.00 52 1018.6
20260508040032 7 104 4.8 6.4 0.00 0.00 0.00 54 1018.7
20260508035512 7 82 3.2 4.8 0.00 0.00 0.00 55 1018.7
20260508035016 7 70 3.2 6.4 0.00 0.00 0.00 55 1018.7
20260508034534 7 80 3.2 6.4 0.00 0.00 0.00 54 1018.6
20260508034014 8 73 4.8 4.8 0.00 0.00 0.00 53 1018.6
20260508033515 8 86 3.2 4.8 0.00 0.00 0.00 50 1018.6
20260508033031 9 97 3.2 4.8 0.00 0.00 0.00 48 1018.5
20260508032511 10 113 1.6 4.8 0.00 0.00 0.00 47 1018.4
20260508032013 10 101 1.6 4.8 0.00 0.00 0.00 47 1018.3
20260508031535 10 89 3.2 4.8 0.00 0.00 0.00 43 1018.2
20260508031012 11 104 1.6 3.2 0.00 0.00 0.00 40 1018.2
20260508030514 12 122 0.0 1.6 0.00 0.00 0.00 36 1018.1
20260508030036 12 0 0.0 0.0 0.00 0.00 0.00 35 1018.1
20260508025513 13 0 0.0 1.6 0.00 0.00 0.00 33 1018.0
20260508025011 13 0 0.0 3.2 0.00 0.00 0.00 33 1017.9
20260508024531 13 293 0.0 3.2 0.00 0.00 0.00 33 1017.8
20260508024012 13 293 0.0 1.6 0.00 0.00 0.00 34 1017.7
20260508023512 13 293 0.0 3.2 0.00 0.00 0.00 33 1017.6
20260508023035 13 293 1.6 4.8 0.00 0.00 0.00 33 1017.7
20260508022513 13 293 3.2 4.8 0.00 0.00 0.00 33 1017.6
20260508022014 13 303 1.6 3.2 0.00 0.00 0.00 33 1017.5
20260508021534 13 314 1.6 6.4 0.00 0.00 0.00 34 1017.6
20260508021013 13 298 3.2 6.4 0.00 0.00 0.00 33 1017.5
20260508020512 14 317 1.6 3.2 0.00 0.00 0.00 34 1017.5
20260508020040 14 289 0.0 4.8 0.00 0.00 0.00 33 1017.4
20260508015514 15 289 1.6 6.4 0.00 0.00 0.00 31 1017.4
20260508015012 15 274 3.2 6.4 0.00 0.00 0.00 30 1017.3
20260508014530 15 281 3.2 8.0 0.00 0.00 0.00 30 1017.4
20260508014011 16 280 3.2 8.0 0.00 0.00 0.00 30 1017.4
20260508013515 16 269 4.8 9.7 0.00 0.00 0.00 28 1017.3
20260508013035 17 282 4.8 11.3 0.00 0.00 0.00 28 1017.4
20260508012513 17 266 6.4 11.3 0.00 0.00 0.00 26 1017.3
20260508012013 17 285 8.0 14.5 0.00 0.00 0.00 26 1017.4
20260508011531 17 278 8.0 16.1 0.00 0.00 0.00 27 1017.3
20260508011013 17 269 9.7 17.7 0.00 0.00 0.00 27 1017.3
20260508010511 17 278 14.5 19.3 0.00 0.00 0.00 25 1017.3
20260508010030 17 293 12.9 19.3 0.00 0.00 0.00 25 1017.3
20260508005515 17 281 14.5 19.3 0.00 0.00 0.00 26 1017.4
20260508005016 17 297 9.7 22.5 0.00 0.00 0.00 26 1017.3
20260508004533 17 294 9.7 22.5 0.00 0.00 0.00 26 1017.4
20260508004012 18 268 16.1 22.5 0.00 0.00 0.00 25 1017.4
20260508003516 18 271 12.9 20.9 0.00 0.00 0.00 25 1017.5
20260508003036 18 293 14.5 20.9 0.00 0.00 0.00 26 1017.6
20260508002512 18 277 12.9 25.7 0.00 0.00 0.00 25 1017.7
20260508002015 18 284 14.5 25.7 0.00 0.00 0.00 26 1017.7
20260508001537 18 285 14.5 22.5 0.00 0.00 0.00 25 1017.8
20260508001014 18 304 16.1 27.4 0.00 0.00 0.00 26 1017.8
20260508000513 18 280 9.7 27.4 0.00 0.00 0.00 27 1017.8
20260508000033 18 292 17.7 25.7 0.00 0.00 0.00 27 1017.8
20260507235514 18 278 14.5 27.4 0.00 0.00 0.00 27 1017.8
20260507235017 18 283 16.1 27.4 0.00 0.00 0.00 26 1017.8
20260507234533 18 264 11.3 27.4 0.00 0.00 0.00 26 1017.7
20260507234014 17 300 16.1 27.4 0.00 0.00 0.00 27 1017.8
20260507233514 17 281 11.3 27.4 0.00 0.00 0.00 25 1017.8
20260507233052 18 309 17.7 27.4 0.00 0.00 0.00 27 1017.8
20260507232513 18 303 16.1 25.7 0.00 0.00 0.00 25 1017.9
20260507232013 17 267 14.5 24.1 0.00 0.00 0.00 26 1018.0
20260507231537 17 299 16.1 24.1 0.00 0.00 0.00 26 1017.8
20260507231013 17 269 14.5 27.4 0.00 0.00 0.00 27 1017.9
20260507230514 17 294 14.5 27.4 0.00 0.00 0.00 25 1017.9
20260507230033 18 259 16.1 27.4 0.00 0.00 0.00 27 1017.8
20260507225514 18 266 16.1 24.1 0.00 0.00 0.00 26 1017.8
20260507225020 18 295 3.2 16.1 0.00 0.00 0.00 25 1017.8
20260507224533 17 241 9.7 22.5 0.00 0.00 0.00 26 1017.8
20260507224014 17 274 9.7 22.5 0.00 0.00 0.00 26 1017.8
20260507223516 17 291 12.9 25.7 0.00 0.00 0.00 27 1017.9
20260507223031 18 276 12.9 25.7 0.00 0.00 0.00 26 1017.9
20260507222516 17 266 11.3 25.7 0.00 0.00 0.00 29 1017.9
20260507222015 17 297 4.8 20.9 0.00 0.00 0.00 25 1017.9
20260507221535 17 230 11.3 25.7 0.00 0.00 0.00 25 1018.0
20260507221013 17 279 16.1 25.7 0.00 0.00 0.00 26 1018.1
20260507220514 17 264 9.7 20.9 0.00 0.00 0.00 27 1018.1
20260507220032 18 272 11.3 22.5 0.00 0.00 0.00 27 1018.1
20260507215517 17 245 11.3 22.5 0.00 0.00 0.00 27 1018.2
20260507215015 17 249 4.8 22.5 0.00 0.00 0.00 27 1018.3
20260507214535 17 274 12.9 22.5 0.00 0.00 0.00 27 1018.3
20260507214013 17 281 8.0 22.5 0.00 0.00 0.00 26 1018.4
20260507213514 17 256 9.7 22.5 0.00 0.00 0.00 26 1018.6
20260507213039 17 305 12.9 20.9 0.00 0.00 0.00 27 1018.6
20260507212514 17 264 6.4 19.3 0.00 0.00 0.00 26 1018.6
20260507212016 17 120 6.4 19.3 0.00 0.00 0.00 26 1018.8
20260507211532 17 264 9.7 19.3 0.00 0.00 0.00 26 1018.8
20260507211018 17 285 8.0 25.7 0.00 0.00 0.00 28 1018.8
20260507210516 16 255 9.7 25.7 0.00 0.00 0.00 27 1018.9
20260507210038 17 250 16.1 24.1 0.00 0.00 0.00 28 1019.1
20260507205513 17 293 11.3 24.1 0.00 0.00 0.00 27 1019.2
20260507205013 17 269 12.9 22.5 0.00 0.00 0.00 28 1019.2
20260507204532 17 226 9.7 19.3 0.00 0.00 0.00 27 1019.3
20260507204014 16 217 8.0 19.3 0.00 0.00 0.00 26 1019.4
20260507203516 16 188 8.0 19.3 0.00 0.00 0.00 26 1019.5
20260507203059 17 263 9.7 20.9 0.00 0.00 0.00 25 1019.4
20260507202513 16 229 8.0 20.9 0.00 0.00 0.00 27 1019.5
20260507202014 16 264 11.3 20.9 0.00 0.00 0.00 27 1019.5
20260507201536 16 244 8.0 19.3 0.00 0.00 0.00 27 1019.6
20260507201014 15 265 12.9 20.9 0.00 0.00 0.00 26 1019.6
20260507200515 16 294 9.7 20.9 0.00 0.00 0.00 29 1019.7
20260507200033 15 276 8.0 19.3 0.00 0.00 0.00 27 1019.8
20260507195513 16 286 12.9 20.9 0.00 0.00 0.00 26 1019.9
20260507195014 15 300 12.9 24.1 0.00 0.00 0.00 27 1019.9
20260507194559 15 260 14.5 24.1 0.00 0.00 0.00 28 1019.9
20260507194013 15 290 8.0 22.5 0.00 0.00 0.00 27 1019.9
20260507193515 15 277 14.5 22.5 0.00 0.00 0.00 27 1020.0
20260507193035 15 288 9.7 22.5 0.00 0.00 0.00 28 1020.0
20260507192515 15 287 11.3 20.9 0.00 0.00 0.00 30 1020.1
20260507192014 15 163 6.4 17.7 0.00 0.00 0.00 29 1020.2
20260507191535 15 271 8.0 17.7 0.00 0.00 0.00 28 1020.1
20260507191013 15 195 4.8 17.7 0.00 0.00 0.00 28 1020.3
20260507190514 15 296 6.4 17.7 0.00 0.00 0.00 28 1020.3
20260507190033 14 245 4.8 16.1 0.00 0.00 0.00 31 1020.3
20260507185514 14 294 9.7 14.5 0.00 0.00 0.00 30 1020.4
20260507185013 14 313 8.0 16.1 0.00 0.00 0.00 29 1020.3
20260507184537 14 295 8.0 17.7 0.00 0.00 0.00 29 1020.4
20260507184015 14 293 8.0 19.3 0.00 0.00 0.00 29 1020.4
20260507183512 14 297 9.7 19.3 0.00 0.00 0.00 32 1020.5
20260507183042 13 262 4.8 19.3 0.00 0.00 0.00 31 1020.5
20260507182513 13 291 8.0 19.3 0.00 0.00 0.00 30 1020.6
20260507182015 13 271 9.7 17.7 0.00 0.00 0.00 32 1020.6
20260507181533 13 311 11.3 17.7 0.00 0.00 0.00 30 1020.7
20260507181019 13 302 9.7 19.3 0.00 0.00 0.00 30 1020.8
20260507180514 13 257 8.0 19.3 0.00 0.00 0.00 34 1020.8
20260507180036 13 223 8.0 16.1 0.00 0.00 0.00 32 1020.9
20260507175517 13 303 8.0 16.1 0.00 0.00 0.00 31 1020.9
20260507175014 13 315 11.3 19.3 0.00 0.00 0.00 28 1021.0
20260507174537 13 147 6.4 19.3 0.00 0.00 0.00 29 1020.9
20260507174014 13 307 4.8 19.3 0.00 0.00 0.00 30 1021.1
20260507173514 12 318 4.8 16.1 0.00 0.00 0.00 30 1021.2
20260507173052 12 307 9.7 16.1 0.00 0.00 0.00 30 1021.2
20260507172514 12 202 3.2 11.3 0.00 0.00 0.00 31 1021.3
20260507172013 12 0 3.2 11.3 0.00 0.00 0.00 32 1021.5
20260507171542 11 316 4.8 11.3 0.00 0.00 0.00 33 1021.5
20260507171015 11 61 3.2 11.3 0.00 0.00 0.00 32 1021.6
20260507170514 11 269 6.4 11.3 0.00 0.00 0.00 35 1021.6
20260507170034 11 274 0.0 9.7 0.00 0.00 0.00 35 1021.6
20260507165512 11 295 3.2 11.3 0.00 0.20 0.00 36 1021.9
20260507165015 11 245 8.0 11.3 0.00 0.20 0.00 37 1022.0
20260507164543 11 186 0.0 11.3 0.00 0.20 0.00 36 1021.9
20260507164014 11 278 4.8 11.3 0.00 0.20 0.00 36 1022.1
20260507163515 11 155 1.6 8.0 0.00 0.20 0.00 36 1022.3
20260507163033 10 222 3.2 8.0 0.00 0.20 0.00 38 1022.3
20260507162517 10 246 3.2 11.3 0.00 0.20 0.00 39 1022.3
20260507162017 10 233 1.6 11.3 0.00 0.20 0.00 39 1022.3
20260507161540 10 210 4.8 16.1 0.00 0.20 0.00 41 1022.4
20260507161016 9 297 6.4 16.1 0.00 0.20 0.00 39 1022.5
20260507160512 9 256 4.8 9.7 0.00 0.20 0.00 42 1022.4
20260507160037 8 281 4.8 9.7 0.00 0.20 0.00 40 1022.6
20260507155514 8 232 3.2 8.0 0.00 0.28 0.00 40 1022.5
20260507155013 8 276 3.2 8.0 0.00 0.28 0.00 41 1022.6
20260507154535 8 245 4.8 9.7 0.00 0.28 0.00 40 1022.6
20260507154015 8 0 3.2 9.7 0.00 0.28 0.00 40 1022.7
20260507153515 8 243 4.8 9.7 0.00 0.28 0.00 40 1022.7
20260507153032 8 246 6.4 11.3 0.00 0.28 0.00 42 1022.8
20260507152517 7 229 6.4 11.3 0.00 0.28 0.00 41 1022.9
20260507152013 7 297 4.8 9.7 0.00 0.28 0.00 42 1022.9
20260507151532 7 259 4.8 9.7 0.00 0.28 0.00 40 1023.0
20260507151013 7 264 4.8 9.7 0.00 0.28 0.00 42 1023.0
20260507150512 7 262 4.8 9.7 0.00 0.28 0.00 43 1023.0
20260507150032 7 290 3.2 8.0 0.00 0.28 0.00 43 1023.1
20260507145514 7 240 3.2 6.4 0.00 0.46 0.00 43 1023.0
20260507145019 7 234 3.2 6.4 0.00 0.46 0.00 41 1023.0
20260507144534 7 273 1.6 6.4 0.00 0.46 0.00 42 1023.1
20260507144014 7 242 1.6 6.4 0.00 0.46 0.00 41 1023.1
20260507143519 6 167 3.2 9.7 0.00 0.46 0.00 43 1023.0
20260507143036 6 108 3.2 9.7 0.00 0.46 0.00 43 1023.0
20260507142515 6 116 4.8 12.9 0.00 0.46 0.00 43 1023.0
20260507142012 6 91 6.4 12.9 0.00 0.46 0.00 44 1023.0
20260507141532 5 118 6.4 14.5 0.00 0.46 0.00 43 1023.0
20260507141014 5 113 9.7 17.7 0.00 0.46 0.00 46 1023.0
20260507140514 5 102 11.3 19.3 0.00 0.46 0.00 46 1023.0
20260507140031 4 129 12.9 19.3 0.00 0.46 0.00 46 1022.9
20260507135513 3 85 14.5 19.3 0.00 0.46 0.00 46 1023.0
20260507135019 3 96 12.9 19.3 0.00 0.46 0.00 46 1022.9
20260507134531 3 111 11.3 19.3 0.00 0.46 0.00 50 1022.8
20260507134013 2 91 9.7 17.7 0.00 0.46 0.00 50 1022.8
20260507133513 2 107 11.3 19.3 0.00 0.46 0.00 50 1022.8
20260507133033 2 95 11.3 19.3 0.00 0.46 0.00 51 1022.7
20260507132517 2 100 12.9 19.3 0.00 0.46 0.00 51 1022.8
20260507132015 2 94 14.5 19.3 0.00 0.46 0.00 52 1022.6
20260507131538 1 92 12.9 19.3 0.00 0.46 0.00 53 1022.5
20260507131014 1 105 11.3 17.7 0.00 0.46 0.00 54 1022.5
20260507130516 1 100 9.7 16.1 0.00 0.46 0.00 55 1022.4
20260507130034 0 88 8.0 14.5 0.00 0.46 0.00 57 1022.3
20260507125514 0 128 8.0 14.5 0.00 0.46 0.00 59 1022.3
20260507125016 0 129 8.0 14.5 0.00 0.46 0.00 59 1022.2
20260507124532 0 111 8.0 17.7 0.00 0.46 0.00 59 1022.3
20260507124013 0 155 9.7 17.7 0.00 0.46 0.00 59 1022.1
20260507123517 0 95 12.9 17.7 0.00 0.46 0.00 58 1022.1
20260507123038 0 98 11.3 17.7 0.00 0.46 0.00 60 1022.0
20260507122513 0 91 11.3 17.7 0.00 0.46 0.00 61 1022.0
20260507122014 -1 102 12.9 20.9 0.00 0.46 0.00 61 1022.1
20260507121531 -1 80 12.9 20.9 0.00 0.46 0.00 61 1022.0
20260507121016 -1 89 12.9 19.3 0.00 0.46 0.00 62 1022.0
20260507120515 -1 82 11.3 19.3 0.00 0.46 0.00 62 1022.0
20260507120041 -1 96 11.3 20.9 0.00 0.46 0.00 62 1022.1